Location: C.E.K. Mees Observatory
(42.7003°N, 77.4088°W)
Time: 17:58:37
(UTC-04:00)

Tiangong 1 - Pass Details

Date: 15 October 2017
Orbit: 293 x 320 km, 42.8° (Epoch: 19 October)

Event Time Altitude Azimuth Distance (km) Brightness Sun altitude
Rises 20:15:17 0° 272° (W) 2,035 6.3 -20.7°
Reaches altitude 10° 20:17:56 10° 243° (WSW) 1,196 4.3 -21.2°
Enters shadow 20:19:14 13° 214° (SW) 1,025 3.5 -21.4°
